Regional Weather Roundup
Issued by NWS Goodland, KS

Home | Current Version | Previous Version | Text Only | Print | Product List | Glossary Off
Versions: 1 2 3 4 5 6 7 8 9 10 11 12 13 14 15 16 17 18 19 20 21 22 23 24 25 26 27 28 29 30 31 32 33 34 35 36 37 38 39 40 41 42 43 44 45 46 47 48 49 50

000
ASUS43 KGLD 291408
RWRGLD

GOODLAND FORECAST AREA HOURLY WEATHER ROUNDUP
NATIONAL WEATHER SERVICE GOODLAND KS
800 AM MDT SUN MAR 29 2015

...OFFICIAL OBSERVATIONS...

CITY           SKY/WX    TMP DP  RH WIND       PRES   REMARKS
GOODLAND KS    SUNNY     50  23  34 N28G37    30.16R
HILL CITY KS   MOSUNNY   56  30  37 NW21      30.06R
IMPERIAL NEB     N/A     50  24  36 NW25G33   30.15R
MCCOOK NEB     MOSUNNY   56  23  27 NW25G33   30.09R
AKRON CO       SUNNY     44  23  43 N29G39    30.24R
BURLINGTON CO  SUNNY     49  19  30 N24G31    30.18R
LIMON CO       SUNNY     42  20  41 N9        30.27R
$$

...UNOFFICIAL OBSERVATIONS...

CITY           SKY/WX    TMP DP  RH WIND       PRES   REMARKS
COLBY KS       SUNNY     54  28  37 NW22G29   30.14R
GOVE KS          N/A     56  32  40 MISG        N/A
LENORA KS        N/A     54  32  43 MISG        N/A
NORTON KS      SUNNY     55  19  24 NW20G28   30.07R
SHARON SPRINGS   N/A     53  28  38 NE25G33     N/A
TRIBUNE KS     SUNNY     54  39  58 N15       30.18R
KIT CARSON CO    N/A     47  23  38 MISG        N/A
YUMA CO          N/A     45  21  38 NW20        N/A
$$


USA.gov is the U.S. government's official web portal to all federal, state and local government web resources and services.